This is the latest recevied weather packets stored in our database for station/object Aldingen. If no packets are shown the sender has not sent any weather packets the latest 10 day(s).
| Time | Temp. | Humidity | Pressure | Rain* | Wind** | Luminosity | Snow |
|---|---|---|---|---|---|---|---|
| 1777604532 | 6.11° C | 40% | 1024.3 hPa | 0 mm | - | - | - |
| 1777602733 | 6.67° C | 38% | 1024.4 hPa | 0 mm | - | - | - |
| 1777600931 | 7.22° C | 37% | 1024.2 hPa | 0 mm | - | - | - |
| 1777599131 | 7.22° C | 38% | 1024.4 hPa | 0 mm | - | - | - |
| 1777597331 | 6.67° C | 37% | 1024.4 hPa | 0 mm | - | - | - |
| 1777595529 | 7.22° C | 35% | 1024.4 hPa | 0 mm | - | - | - |
| 1777593730 | 8.33° C | 29% | 1024.4 hPa | 0 mm | - | - | - |
| 1777591929 | 8.33° C | 30% | 1024.5 hPa | 0 mm | - | - | - |
| 1777590129 | 8.33° C | 30% | 1024.5 hPa | 0 mm | - | - | - |
| 1777588329 | 8.89° C | 27% | 1024.4 hPa | 0 mm | - | - | - |
| 1777586529 | 9.44° C | 31% | 1024.4 hPa | 0 mm | - | - | - |
| 1777584729 | 8.89° C | 34% | 1024.4 hPa | 0 mm | - | - | - |
| 1777582929 | 9.44° C | 33% | 1024.3 hPa | 0 mm | - | - | - |
| 1777581135 | 9.44° C | 32% | 1024.2 hPa | 0 mm | - | - | - |
| 1777579329 | 10° C | 30% | 1024.1 hPa | 0 mm | - | - | - |
| 1777577529 | 11.11° C | 27% | 1023.8 hPa | 0 mm | - | - | - |
| 1777575735 | 11.11° C | 27% | 1023.7 hPa | 0 mm | - | - | - |
| 1777573930 | 12.22° C | 25% | 1023.4 hPa | 0 mm | - | - | - |
| 1777572132 | 12.78° C | 26% | 1023.1 hPa | 0 mm | - | - | - |
| 1777570330 | 13.89° C | 26% | 1022.7 hPa | 0 mm | - | - | - |
| 1777568531 | 14.44° C | 23% | 1022.8 hPa | 0 mm | - | - | - |
| 1777566730 | 15° C | 23% | 1022.8 hPa | 0 mm | - | - | - |
| 1777564930 | 15° C | 23% | 1022.4 hPa | 0 mm | - | - | - |
| 1777563132 | 15.56° C | 23% | 1022.4 hPa | 0 mm | - | - | - |
| 1777559530 | 15.56° C | 20% | 1022.5 hPa | 0 mm | - | - | - |
* Rain since midnight (hover to see other rain measurements)
** Current wind speed in m/s (hover to see current wind gust speed)